| time (UTC) | temp F | wind direction | speed MPH | gust MPH | rain 1hr in | rain 24hr in | rain mn in | humidity % | barometer mb |
| 20260506170010 | 37 | 289 | 5.0 | 9.0 | 0.00 | 0.00 | 0.00 | 57 | 1015.1 |
| 20260506164514 | 35 | 248 | 3.0 | 10.0 | 0.00 | 0.00 | 0.00 | 61 | 1015.3 |
| 20260506163018 | 35 | 311 | 4.0 | 12.0 | 0.00 | 0.00 | 0.00 | 62 | 1015.3 |
| 20260506161521 | 35 | 298 | 2.0 | 10.0 | 0.00 | 0.00 | 0.00 | 63 | 1015.4 |
| 20260506160006 | 34 | 210 | 3.0 | 9.0 | 0.00 | 0.00 | 0.00 | 62 | 1015.6 |
| 20260506154511 | 35 | 273 | 2.0 | 7.0 | 0.00 | 0.00 | 0.00 | 65 | 1015.5 |
| 20260506153016 | 33 | 307 | 3.0 | 10.0 | 0.00 | 0.00 | 0.00 | 64 | 1015.5 |
| 20260506151524 | 33 | 272 | 5.0 | 16.0 | 0.00 | 0.00 | 0.00 | 64 | 1015.5 |
| 20260506150028 | 33 | 296 | 2.0 | 8.0 | 0.00 | 0.00 | 0.00 | 64 | 1015.6 |
| 20260506144506 | 33 | 304 | 3.0 | 9.0 | 0.00 | 0.00 | 0.00 | 64 | 1015.6 |
| 20260506143011 | 32 | 292 | 3.0 | 9.0 | 0.00 | 0.00 | 0.00 | 63 | 1015.6 |
| 20260506141517 | 33 | 289 | 4.0 | 13.0 | 0.00 | 0.00 | 0.00 | 61 | 1015.5 |
| 20260506140027 | 33 | 335 | 4.0 | 13.0 | 0.00 | 0.00 | 0.00 | 60 | 1015.4 |
| 20260506134528 | 33 | 287 | 3.0 | 9.0 | 0.00 | 0.00 | 0.00 | 58 | 1015.5 |
| 20260506133010 | 33 | 304 | 3.0 | 10.0 | 0.00 | 0.00 | 0.00 | 57 | 1015.3 |
| 20260506131515 | 33 | 306 | 3.0 | 8.0 | 0.00 | 0.00 | 0.00 | 56 | 1015.3 |
| 20260506130019 | 32 | 15 | 3.0 | 9.0 | 0.00 | 0.00 | 0.00 | 56 | 1015.2 |
| 20260506124522 | 32 | 292 | 2.0 | 8.0 | 0.00 | 0.00 | 0.00 | 58 | 1015.0 |
| 20260506123024 | 32 | 241 | 2.0 | 8.0 | 0.00 | 0.00 | 0.00 | 58 | 1014.9 |
| 20260506121527 | 31 | 310 | 1.0 | 9.0 | 0.00 | 0.00 | 0.00 | 59 | 1014.7 |
| 20260506120014 | 31 | 249 | 1.0 | 4.0 | 0.00 | 0.00 | 0.00 | 59 | 1014.6 |
| 20260506114533 | 31 | 309 | 0.0 | 7.0 | 0.00 | 0.00 | 0.00 | 60 | 1014.4 |
| 20260506113022 | 30 | 277 | 1.0 | 3.0 | 0.00 | 0.00 | 0.00 | 60 | 1014.3 |
| 20260506111523 | 30 | 300 | 1.0 | 5.0 | 0.00 | 0.00 | 0.00 | 59 | 1014.3 |
| 20260506110032 | 30 | 306 | 2.0 | 8.0 | 0.00 | 0.00 | 0.00 | 58 | 1014.1 |
| 20260506104514 | 30 | 304 | 1.0 | 5.0 | 0.00 | 0.00 | 0.00 | 58 | 1014.1 |
| 20260506103022 | 30 | 303 | 1.0 | 4.0 | 0.00 | 0.00 | 0.00 | 58 | 1013.9 |
| 20260506101524 | 30 | 312 | 2.0 | 4.0 | 0.00 | 0.00 | 0.00 | 58 | 1014.1 |
| 20260506100028 | 30 | 294 | 1.0 | 8.0 | 0.00 | 0.00 | 0.00 | 57 | 1013.8 |
| 20260506094526 | 31 | 290 | 1.0 | 5.0 | 0.00 | 0.00 | 0.00 | 58 | 1013.8 |
| 20260506093015 | 31 | 290 | 0.0 | 2.0 | 0.00 | 0.00 | 0.00 | 57 | 1013.8 |
| 20260506091523 | 31 | 290 | 1.0 | 9.0 | 0.00 | 0.00 | 0.00 | 56 | 1014.0 |
| 20260506090025 | 31 | 318 | 1.0 | 4.0 | 0.00 | 0.00 | 0.00 | 56 | 1013.9 |
| 20260506084526 | 31 | 304 | 0.0 | 4.0 | 0.00 | 0.00 | 0.00 | 56 | 1013.8 |
| 20260506083027 | 31 | 309 | 0.0 | 5.0 | 0.00 | 0.00 | 0.00 | 56 | 1013.8 |
| 20260506081518 | 31 | 295 | 0.0 | 4.0 | 0.00 | 0.00 | 0.00 | 54 | 1013.8 |
| 20260506073027 | 31 | 300 | 0.0 | 3.0 | 0.00 | 0.00 | 0.00 | 54 | 1013.8 |
| 20260506071526 | 31 | 296 | 0.0 | 3.0 | 0.00 | 0.00 | 0.00 | 54 | 1013.8 |
| 20260506061512 | 31 | 273 | 0.0 | 6.0 | 0.00 | 0.00 | 0.00 | 52 | 1014.1 |
| 20260506044527 | 32 | 336 | 2.0 | 9.0 | 0.00 | 0.00 | 0.00 | 53 | 1013.7 |
| 20260506043019 | 32 | 313 | 1.0 | 5.0 | 0.00 | 0.00 | 0.00 | 54 | 1013.8 |
| 20260506041526 | 32 | 290 | 1.0 | 6.0 | 0.00 | 0.00 | 0.00 | 53 | 1013.7 |
| 20260506040010 | 32 | 297 | 1.0 | 8.0 | 0.00 | 0.00 | 0.00 | 53 | 1013.8 |
| 20260506034513 | 32 | 288 | 2.0 | 6.0 | 0.00 | 0.00 | 0.00 | 53 | 1013.7 |
| 20260506033028 | 32 | 323 | 2.0 | 8.0 | 0.00 | 0.00 | 0.00 | 52 | 1013.7 |
| 20260506031531 | 32 | 284 | 1.0 | 5.0 | 0.00 | 0.00 | 0.00 | 53 | 1013.6 |
| 20260506030049 | 33 | 288 | 1.0 | 6.0 | 0.00 | 0.00 | 0.00 | 52 | 1013.6 |
| 20260506024520 | 33 | 266 | 0.0 | 4.0 | 0.00 | 0.00 | 0.00 | 52 | 1013.5 |
| 20260506023014 | 33 | 280 | 2.0 | 10.0 | 0.00 | 0.00 | 0.00 | 50 | 1013.3 |
| 20260506021520 | 33 | 309 | 3.0 | 11.0 | 0.00 | 0.00 | 0.00 | 49 | 1013.1 |
| 20260506020026 | 33 | 290 | 3.0 | 8.0 | 0.00 | 0.00 | 0.00 | 49 | 1013.0 |
| 20260506014527 | 34 | 307 | 3.0 | 13.0 | 0.00 | 0.00 | 0.00 | 49 | 1012.7 |
| 20260506013008 | 34 | 304 | 2.0 | 11.0 | 0.00 | 0.00 | 0.00 | 48 | 1012.7 |
| 20260506011522 | 34 | 335 | 4.0 | 15.0 | 0.00 | 0.00 | 0.00 | 47 | 1012.6 |
| 20260506010020 | 35 | 330 | 2.0 | 12.0 | 0.00 | 0.00 | 0.00 | 47 | 1012.4 |
| 20260506004540 | 35 | 319 | 4.0 | 12.0 | 0.00 | 0.00 | 0.00 | 45 | 1012.4 |
| 20260506003033 | 35 | 267 | 4.0 | 11.0 | 0.00 | 0.00 | 0.00 | 46 | 1012.2 |
| 20260506001512 | 36 | 287 | 3.0 | 11.0 | 0.00 | 0.00 | 0.00 | 45 | 1012.2 |
| 20260506000021 | 36 | 313 | 3.0 | 11.0 | 0.00 | 0.00 | 0.00 | 44 | 1012.2 |
| 20260505234518 | 36 | 290 | 3.0 | 12.0 | 0.00 | 0.00 | 0.00 | 44 | 1012.0 |
| 20260505233026 | 37 | 284 | 4.0 | 11.0 | 0.00 | 0.00 | 0.00 | 43 | 1011.8 |
| 20260505231528 | 37 | 274 | 5.0 | 12.0 | 0.00 | 0.00 | 0.00 | 44 | 1011.8 |
| 20260505230014 | 37 | 311 | 4.0 | 16.0 | 0.00 | 0.00 | 0.00 | 45 | 1011.8 |
| 20260505224516 | 38 | 277 | 3.0 | 13.0 | 0.00 | 0.00 | 0.00 | 44 | 1011.7 |
| 20260505223023 | 38 | 288 | 3.0 | 17.0 | 0.00 | 0.00 | 0.00 | 44 | 1011.6 |
| 20260505221527 | 37 | 296 | 5.0 | 12.0 | 0.00 | 0.00 | 0.00 | 43 | 1011.7 |
| 20260505220030 | 37 | 290 | 4.0 | 18.0 | 0.00 | 0.00 | 0.00 | 43 | 1011.7 |
| 20260505214533 | 38 | 311 | 6.0 | 16.0 | 0.00 | 0.00 | 0.00 | 43 | 1011.7 |
| 20260505213019 | 38 | 355 | 3.0 | 10.0 | 0.00 | 0.00 | 0.00 | 42 | 1011.7 |
| 20260505211524 | 37 | 277 | 3.0 | 13.0 | 0.00 | 0.00 | 0.00 | 43 | 1011.7 |
| 20260505210024 | 37 | 260 | 6.0 | 13.0 | 0.00 | 0.00 | 0.00 | 44 | 1011.7 |
| 20260505204532 | 37 | 298 | 3.0 | 10.0 | 0.00 | 0.00 | 0.00 | 44 | 1011.7 |
| 20260505203033 | 36 | 296 | 3.0 | 14.0 | 0.00 | 0.00 | 0.00 | 44 | 1011.7 |
| 20260505201521 | 36 | 325 | 3.0 | 14.0 | 0.00 | 0.00 | 0.00 | 45 | 1011.7 |
| 20260505200004 | 35 | 291 | 6.0 | 15.0 | 0.00 | 0.00 | 0.00 | 45 | 1011.7 |
| 20260505194508 | 35 | 314 | 5.0 | 11.0 | 0.00 | 0.00 | 0.00 | 47 | 1011.7 |
| 20260505193006 | 34 | 295 | 7.0 | 15.0 | 0.00 | 0.00 | 0.00 | 48 | 1011.6 |
| 20260505191508 | 34 | 295 | 3.0 | 14.0 | 0.00 | 0.00 | 0.00 | 49 | 1011.7 |
| 20260505190008 | 34 | 301 | 5.0 | 11.0 | 0.00 | 0.00 | 0.00 | 47 | 1011.6 |
| 20260505184506 | 34 | 319 | 3.0 | 9.0 | 0.00 | 0.00 | 0.00 | 49 | 1011.5 |
| 20260505183013 | 33 | 313 | 4.0 | 13.0 | 0.00 | 0.00 | 0.00 | 49 | 1011.4 |
| 20260505181509 | 33 | 269 | 3.0 | 12.0 | 0.00 | 0.00 | 0.00 | 49 | 1011.3 |
| 20260505180012 | 33 | 257 | 3.0 | 11.0 | 0.00 | 0.00 | 0.00 | 48 | 1011.2 |
| 20260505174511 | 33 | 310 | 5.0 | 12.0 | 0.00 | 0.00 | 0.00 | 47 | 1011.0 |
| 20260505173005 | 33 | 302 | 3.0 | 10.0 | 0.00 | 0.00 | 0.00 | 49 | 1011.0 |
| 20260505171510 | 33 | 303 | 6.0 | 13.0 | 0.00 | 0.00 | 0.00 | 49 | 1010.9 |